Terug naar catalogus

DELTA 1 DEB

ActiefSSO
NORAD 12256·DEBRIS·🇺🇸 United States

Gelanceerd Mar 5, 1978 vanaf Vandenberg Space Force Base

Loading…

Volgende Passages (komende 24 uur)

TLE

VersSource: Space-Track

Epoch: Sep 13, 2026, 15:40 UTC

1 12256U 78026CZ  26256.65341994  .00001075  00000-0  48428-3 0  9993
2 12256  99.0620 320.8997 0082772  49.2749 311.5578 14.22630203325736

Volg DELTA 1 DEB in realtime met AllMySat

Download on the App Store